Regional Weather Roundup
Issued by NWS

Home | Current Version | Previous Version | Graphics & Text | Print | Product List | Glossary On
Versions: 1 2 3 4 5 6 7 8 9 10 11 12 13 14 15 16 17 18 19 20 21 22 23 24 25 26 27 28 29 30 31 32 33 34 35 36 37 38 39 40 41 42 43 44 45 46 47 48 49 50
000
ASUS45 KTFX 222010
RWRMT
MONTANA REGIONAL WEATHER ROUNDUP
NATIONAL WEATHER SERVICE GREAT FALLS MT
200 PM MDT SUN OCT 22 2017

NOTE: "FAIR" INDICATES FEW OR NO CLOUDS BELOW 12000 FEET WITH NO
SIGNIFICANT WEATHER AND/OR OBSTRUCTIONS TO VISIBILITY.

MTZ001>007-043-222100-
WEST OF THE DIVIDE

CITY           SKY/WX    TMP DP  RH WIND       PRES   REMARKS
KALISPELL      MOSUNNY   56  36  47 W20G28    29.89R
MISSOULA       MOSUNNY   55  46  71 W17       30.00R
BUTTE          CLOUDY    51  37  58 W16G26    30.00R
MULLAN PASS    CLOUDY    36  30  79 NW10G26   30.05R WCI  28
$$

MTZ008-052>055-222100-
SOUTHWEST MONTANA

CITY           SKY/WX    TMP DP  RH WIND       PRES   REMARKS
BOZEMAN        CLOUDY    60  34  37 SW25G38   29.94S
DILLON         CLOUDY    55  34  45 SW28G38   30.03R
W YELLOWSTONE  CLOUDY    37  36  93 SW15G24   30.16F WCI  28
ENNIS          CLOUDY    55  32  41 S24G38    30.07S
$$

MTZ009-010-012-014-046-048-049-054-222100-
EAST SLOPES AND CENTRAL MONTANA

CITY           SKY/WX    TMP DP  RH WIND       PRES   REMARKS
CUT BANK       SUNNY     53  34  48 W38G49    29.71R
GREAT FALLS    MOSUNNY   60  34  37 W33G53    29.76R
MALMSTROM AFB  MOSUNNY   59  35  39 W28G41    29.78R
HELENA         MOSUNNY   60  33  36 W30G44    29.90R
$$

MTZ011-013-016-021-045-047-050-051-222100-
NORTH CENTRAL MONTANA

CITY           SKY/WX    TMP DP  RH WIND       PRES   REMARKS
HAVRE          CLOUDY    60  35  39 W43G54    29.62R
LEWISTOWN      MOSUNNY   64  29  26 W37G53    29.75R
N BAR RANCH      N/A     61  28  29 W30G47    29.76R
DENTON           N/A     61  31  32 W43G69    29.67
$$

MTZ017>020-022>027-061-062-222100-
NORTHEAST MONTANA

CITY           SKY/WX    TMP DP  RH WIND       PRES   REMARKS
GLASGOW        SUNNY     62  38  40 W23G32    29.56F
JORDAN           N/A     66  34  30 W23G39    29.62F
SIDNEY         CLOUDY    57  34  41 S8        29.61F
WOLF POINT     SUNNY     69  37  30 W26G36    29.56F
MALTA          SUNNY     64  36  34 W30G40    29.58R
$$

MTZ028>42-056>058-222100-
SOUTHCENTRAL AND SOUTHEAST MONTANA

CITY           SKY/WX    TMP DP  RH WIND       PRES   REMARKS
BAKER          CLOUDY    66  34  30 W32G45    29.72F
BILLINGS       MOSUNNY   67  32  27 W26G43    29.80F
LIVINGSTON     CLOUDY    59  34  39 SW39G54   29.87R
MILES CITY     CLOUDY    68  33  27 W33G43    29.69F
$$

REGIONAL REPORTS...DAKOTAS

CITY           SKY/WX    TMP DP  RH WIND       PRES   REMARKS
WILLISTON      CLOUDY    53  42  66 SW7       29.60F
MINOT          CLOUDY    56  29  35 S16G26    29.60F
DICKINSON      CLOUDY    63  31  30 SW21G26   29.66F
BEACH            N/A     64  30  27 W29G41    29.68F
CROSBY         CLOUDY    45  45 100 SW13      29.56S FOG
TIOGA          LGT RAIN  50  41  71 SW7G14    29.60S
BISMARCK       CLOUDY    62  27  26 SW18G25   29.71F
GRAND FORKS    PTSUNNY   65  28  24 SW22G31   29.70F
FARGO          SUNNY     64  28  25 SW22G32   29.79F
BUFFALO SD       N/A     69  30  23 W38G48    29.70F
RAPID CITY     PTSUNNY   71  29  21 SW14      29.86F
$$

REGIONAL REPORTS...WYOMING/IDAHO/WASHINGTON

CITY           SKY/WX    TMP DP  RH WIND       PRES   REMARKS
GILLETTE       CLOUDY    63  28  26 SW25G31   29.90F
SHERIDAN       CLOUDY    65  29  25 W26G32    29.86F
BUFFALO WY     CLOUDY    63  25  23 SE8       29.90F
CODY           CLOUDY    57  33  40 W13G28    30.00S
YELLOWSTONE LA   N/A     35  33  92 W12G24    30.19R WCI  27
IDAHO FALLS    CLOUDY    56  37  49 SW32G44   30.22F
SALMON         CLOUDY    60  37  42 W23G30    30.05S
BOISE          PTSUNNY   61  43  51 SE9       30.27F
SPOKANE        PTSUNNY   54  39  57 SW24G35   30.07R
$$

REGIONAL REPORTS...ALBERTA

CITY           SKY/WX    TMP DP  RH WIND       PRES   REMARKS
EDMONTON       SUNNY     50  36  57 NW14G22   29.52R
CALGARY        MOSUNNY   55  23  28 W25G33    29.56R
LETHBRIDGE     MOSUNNY   55  30  38 W36G47    29.64R
MEDICINE HAT   PTSUNNY   57  36  44 W26G37    29.55R
$$

REGIONAL REPORTS...SASKATCHEWAN

CITY           SKY/WX    TMP DP  RH WIND       PRES   REMARKS
SWIFT CURRENT  MOSUNNY   59  32  36 W29G38    29.45R
REGINA         MOSUNNY   59  37  44 W20G28    29.41S
SASKATOON      CLOUDY    41  37  87 E5        29.45R
$$



USA.gov is the U.S. government's official web portal to all federal, state and local government web resources and services.